Tracking 29892 objects as of 21-Nov-2024
HD Live streaming from Space Station
objects crossing your sky now

STARLINK-30544

Track STARLINK-30544 now!
10-day predictions
STARLINK-30544 is classified as:


NORAD ID: 58055
Int'l Code: 2023-158E
Perigee: 565.0 km
Apogee: 567.4 km
Inclination: 43.0 °
Period: 95.8 minutes
Semi major axis: 6937 km
RCS: Unknown
Launch date: October 13, 2023
Source: United States (US)
Launch site: AIR FORCE EASTERN TEST RANGE (AFETR)
Your satellite tracking list
Your tracking list is empty




NASA's NSSDC Master Catalog

Two Line Element Set (TLE):
1 58055U 23158E   24325.38117391  .00002237  00000-0  18059-3 0  9991
2 58055  43.0048  87.5378 0001730 272.9171  87.1474 15.02548420 62181
Source of the keplerian elements: AFSPC